Location: Home
(42.5358°N, 72.7383°W)
Time: 15:58:27
(UTC-04:00)

Explorer 11/Cluster Stage 4 - Pass Details

Date: 04 August 2024
Orbit: 464 x 1208 km, 28.8° (Epoch: 19 September)

Event Time Altitude Azimuth Distance (km) Brightness Sun altitude
Rises 01:24:17 0° 216° (SW) 3,827 - -30.0°
Reaches altitude 10° 01:27:53 10° 198° (SSW) 2,982 - -29.9°
Maximum altitude 01:32:41 18° 158° (SSE) 2,514 - -29.8°
Drops below altitude 10° 01:37:42 10° 119° (ESE) 3,141 - -29.6°
Exits shadow 01:38:17 - 116° (ESE) 3,268 9.6 -29.6°
Sets 01:41:37 0° 102° (ESE) 4,109 10.3 -29.5°
